Hourly Data Report for July 22, 2008

All times are specified in Local Standard Time (LST). Add 1 hour to adjust for Daylight Saving Time where and when it is observed.

Metadata including Station Name, Province, Latitude, Longitude, Elevation, Climate ID, WMO ID, TC ID
RESOLUTE CARS
NUNAVUT
Latitude: 74°43'01.000" N Longitude: 94°58'10.000" W Elevation: 67.70 m
Climate ID: 2403500 WMO ID: 71924 TC ID: YRB
Hourly Data Report for July 22, 2008
Temp Definition
°C

Dew Point Temp Definition
°C

Rel Hum Definition
%

Wind Dir Definition
10's deg
Wind Spd Definition
km/h

Visibility Definition
km

Stn Press Definition
kPa

Hmdx Definition

Wind Chill Definition

Weather Definition

TIME
00:00 2.2 1.2 93 10 63 19.3 99.25 Rain
01:00 2.2 1.6 96 11 48 19.3 99.20 Rain
02:00 1.9 1.4 96 9 57 16.1 99.17 Rain
03:00 2.1 2.1 100 9 54 12.9 99.16 Rain
04:00 2.2 2.2 100 9 67 16.1 99.04 Rain Showers
05:00 2.4 2.4 100 9 61 14.5 99.00 Rain Showers
06:00 2.2 2.2 100 10 63 14.5 99.01 Rain Showers
07:00 2.3 2.3 100 10 63 16.1 98.91 Rain Showers
08:00 2.1 2.1 100 9 69 14.5 98.81 Rain Showers
09:00 2.4 2.4 100 10 67 12.9 98.73 Rain Showers
10:00 2.1 2.1 100 10 65 8.0 98.71 Rain Showers,Fog
11:00 1.9 1.6 98 10 80 4.8 98.63 Rain Showers,Fog
12:00 2.1 1.8 98 10 78 6.4 98.65 Rain Showers,Fog
13:00 2.4 1.5 94 10 83 8.0 98.54 Rain Showers,Fog
14:00 2.6 1.8 94 10 93 4.8 98.57 Rain Showers,Fog
15:00 2.7 1.5 92 10 74 3.2 98.46 Rain Showers,Fog
16:00 2.5 1.4 92 10 70 3.2 98.47 Rain Showers,Fog
17:00 2.2 1.8 97 11 65 3.2 98.45 Rain Showers
18:00 2.7 2.2 97 10 80 3.2 98.38 Rain Showers
19:00 3.1 2.5 96 11 65 8.0 98.35 Rain Showers
20:00 3.2 2.7 97 11 50 11.3 98.37 Rain Showers
21:00 3.6 3.1 97 10 59 14.5 98.29 Rain Showers
22:00 4.1 3.5 96 11 26 11.3 98.33 Rain Showers
23:00 4.0 3.4 96 8 33 19.3 98.27 Rain

Notes on Data Quality.

Legend
  • E = Estimated
  • M = Missing
  • NA = Not Available
  • ‡ = Partner data that is not subject to review by the National Climate Archives